Time,TemperatureF,DewpointF,PressureIn,WindDirection,WindDirectionDegrees,WindSpeedMPH,WindSpeedGustMPH,Humidity,HourlyPrecipIn,Conditions,Clouds,dailyrainin,SoftwareType,DateUTC
2013-08-25 00:00:00,74.5,71.0,30.10,SE,128,0.0,0.0,88,0.00,,,0.00,weatherlink.com 1.10,2013-08-25 05:00:00,
2013-08-25 00:15:00,74.3,71.0,30.10,SE,128,0.0,0.0,89,0.00,,,0.00,weatherlink.com 1.10,2013-08-25 05:15:00,
2013-08-25 00:30:00,74.0,71.0,30.10,SE,128,0.0,0.0,89,0.00,,,0.00,weatherlink.com 1.10,2013-08-25 05:30:00,
2013-08-25 00:45:00,73.8,70.0,30.11,SE,128,0.0,0.0,89,0.00,,,0.00,weatherlink.com 1.10,2013-08-25 05:45:00,
2013-08-25 01:00:00,73.6,71.0,30.11,SE,128,0.0,0.0,90,0.00,,,0.00,weatherlink.com 1.10,2013-08-25 06:00:00,
2013-08-25 01:15:00,73.3,70.0,30.11,SE,128,0.0,0.0,90,0.00,,,0.00,weatherlink.com 1.10,2013-08-25 06:15:00,
2013-08-25 01:30:00,73.1,70.0,30.11,SE,128,0.0,0.0,90,0.00,,,0.00,weatherlink.com 1.10,2013-08-25 06:30:00,
2013-08-25 01:45:00,73.5,71.0,30.11,SE,128,0.0,1.0,90,0.00,,,0.00,weatherlink.com 1.10,2013-08-25 06:45:00,
2013-08-25 02:00:00,73.7,70.0,30.11,SE,128,0.0,0.0,89,0.00,,,0.00,weatherlink.com 1.10,2013-08-25 07:00:00,
2013-08-25 02:15:00,73.3,70.0,30.11,SE,128,0.0,0.0,89,0.00,,,0.00,weatherlink.com 1.10,2013-08-25 07:15:00,
2013-08-25 02:30:00,72.8,70.0,30.12,SE,128,0.0,0.0,89,0.00,,,0.00,weatherlink.com 1.10,2013-08-25 07:30:00,
2013-08-25 02:45:00,72.7,70.0,30.12,SE,128,0.0,0.0,90,0.00,,,0.00,weatherlink.com 1.10,2013-08-25 07:45:00,
2013-08-25 03:00:00,72.6,70.0,30.12,SE,128,0.0,0.0,90,0.00,,,0.00,weatherlink.com 1.10,2013-08-25 08:00:00,
2013-08-25 03:15:00,72.5,70.0,30.12,SE,128,0.0,0.0,91,0.00,,,0.00,weatherlink.com 1.10,2013-08-25 08:15:00,
2013-08-25 03:30:00,72.3,70.0,30.13,SE,128,0.0,0.0,91,0.00,,,0.00,weatherlink.com 1.10,2013-08-25 08:30:00,
2013-08-25 03:45:00,72.2,70.0,30.13,SE,128,0.0,0.0,91,0.00,,,0.00,weatherlink.com 1.10,2013-08-25 08:45:00,
2013-08-25 04:00:00,73.1,70.0,30.13,SE,128,0.0,1.0,91,0.00,,,0.00,weatherlink.com 1.10,2013-08-25 09:00:00,
2013-08-25 04:15:00,73.6,70.0,30.13,SE,128,0.0,1.0,89,0.00,,,0.00,weatherlink.com 1.10,2013-08-25 09:15:00,
2013-08-25 04:30:00,73.7,70.0,30.13,SE,128,0.0,0.0,89,0.00,,,0.00,weatherlink.com 1.10,2013-08-25 09:30:00,
2013-08-25 04:45:00,73.1,70.0,30.13,SE,128,0.0,1.0,89,0.00,,,0.00,weatherlink.com 1.10,2013-08-25 09:45:00,
2013-08-25 05:00:00,73.0,70.0,30.14,SE,128,0.0,0.0,89,0.00,,,0.00,weatherlink.com 1.10,2013-08-25 10:00:00,
2013-08-25 05:15:00,72.5,70.0,30.14,SE,128,0.0,0.0,90,0.00,,,0.00,weatherlink.com 1.10,2013-08-25 10:15:00,
2013-08-25 05:30:00,72.4,70.0,30.14,SE,128,0.0,0.0,91,0.00,,,0.00,weatherlink.com 1.10,2013-08-25 10:30:00,
2013-08-25 05:45:00,72.6,70.0,30.15,SE,128,0.0,1.0,91,0.00,,,0.00,weatherlink.com 1.10,2013-08-25 10:45:00,
2013-08-25 06:00:00,72.9,70.0,30.15,SE,128,0.0,0.0,91,0.00,,,0.00,weatherlink.com 1.10,2013-08-25 11:00:00,
2013-08-25 06:16:00,72.9,70.0,30.16,SE,128,0.0,0.0,91,0.00,,,0.00,weatherlink.com 1.10,2013-08-25 11:16:00,
2013-08-25 06:31:00,72.9,70.0,30.16,SE,128,0.0,1.0,91,0.00,,,0.00,weatherlink.com 1.10,2013-08-25 11:31:00,
2013-08-25 06:46:00,73.1,70.0,30.16,SE,128,0.0,0.0,91,0.00,,,0.00,weatherlink.com 1.10,2013-08-25 11:46:00,
2013-08-25 07:01:00,73.2,71.0,30.17,SE,128,0.0,0.0,91,0.00,,,0.00,weatherlink.com 1.10,2013-08-25 12:01:00,
2013-08-25 07:16:00,73.3,71.0,30.17,SE,128,0.0,1.0,91,0.00,,,0.00,weatherlink.com 1.10,2013-08-25 12:16:00,
2013-08-25 07:31:00,73.3,71.0,30.18,SE,128,0.0,1.0,91,0.00,,,0.00,weatherlink.com 1.10,2013-08-25 12:31:00,
2013-08-25 07:46:00,73.9,72.0,30.18,SE,128,0.0,1.0,92,0.00,,,0.00,weatherlink.com 1.10,2013-08-25 12:46:00,
2013-08-25 08:01:00,75.4,72.0,30.18,SE,128,0.0,2.0,90,0.00,,,0.00,weatherlink.com 1.10,2013-08-25 13:01:00,
2013-08-25 08:16:00,76.7,73.0,30.18,SE,142,4.0,4.0,88,0.00,,,0.00,weatherlink.com 1.10,2013-08-25 13:16:00,
2013-08-25 08:31:00,77.8,73.0,30.19,SE,138,3.0,8.0,86,0.00,,,0.00,weatherlink.com 1.10,2013-08-25 13:31:00,
2013-08-25 08:46:00,78.8,73.0,30.18,SE,134,5.0,11.0,83,0.00,,,0.00,weatherlink.com 1.10,2013-08-25 13:46:00,
2013-08-25 09:01:00,79.7,74.0,30.18,SSE,157,5.0,10.0,82,0.00,,,0.00,weatherlink.com 1.10,2013-08-25 14:01:00,
2013-08-25 09:16:00,80.6,74.0,30.18,SSE,159,4.0,10.0,80,0.00,,,0.00,weatherlink.com 1.10,2013-08-25 14:16:00,
2013-08-25 09:31:00,81.4,74.0,30.18,SSE,150,7.0,14.0,78,0.00,,,0.00,weatherlink.com 1.10,2013-08-25 14:31:00,
2013-08-25 09:46:00,82.3,74.0,30.18,SE,137,7.0,9.0,77,0.00,,,0.00,weatherlink.com 1.10,2013-08-25 14:46:00,
2013-08-25 10:01:00,83.1,74.0,30.18,South,171,8.0,12.0,75,0.00,,,0.00,weatherlink.com 1.10,2013-08-25 15:01:00,
2013-08-25 10:16:00,83.6,75.0,30.19,SSE,162,5.0,12.0,74,0.00,,,0.00,weatherlink.com 1.10,2013-08-25 15:16:00,
2013-08-25 10:31:00,84.4,74.0,30.19,SE,140,9.0,10.0,72,0.00,,,0.00,weatherlink.com 1.10,2013-08-25 15:31:00,
2013-08-25 10:46:00,84.9,75.0,30.19,South,188,2.0,11.0,72,0.00,,,0.00,weatherlink.com 1.10,2013-08-25 15:46:00,
2013-08-25 11:01:00,85.4,75.0,30.19,SE,142,4.0,10.0,71,0.00,,,0.00,weatherlink.com 1.10,2013-08-25 16:01:00,
2013-08-25 11:16:00,86.4,75.0,30.19,SW,223,5.0,10.0,69,0.00,,,0.00,weatherlink.com 1.10,2013-08-25 16:16:00,
2013-08-25 11:31:00,86.6,75.0,30.18,SSW,202,2.0,10.0,68,0.00,,,0.00,weatherlink.com 1.10,2013-08-25 16:31:00,
2013-08-25 11:46:00,86.9,75.0,30.18,South,186,2.0,10.0,67,0.00,,,0.00,weatherlink.com 1.10,2013-08-25 16:46:00,
2013-08-25 12:01:00,87.3,76.0,30.17,SSW,209,7.0,9.0,68,0.00,,,0.00,weatherlink.com 1.10,2013-08-25 17:01:00,
2013-08-25 12:16:00,87.9,75.0,30.17,SE,135,3.0,9.0,66,0.00,,,0.00,weatherlink.com 1.10,2013-08-25 17:16:00,
2013-08-25 12:31:00,88.8,75.0,30.16,SSE,165,7.0,8.0,63,0.00,,,0.00,weatherlink.com 1.10,2013-08-25 17:31:00,
2013-08-25 12:46:00,89.0,75.0,30.16,SE,130,8.0,9.0,64,0.00,,,0.00,weatherlink.com 1.10,2013-08-25 17:46:00,
2013-08-25 13:01:00,89.0,74.0,30.16,SSE,151,7.0,15.0,62,0.00,,,0.00,weatherlink.com 1.10,2013-08-25 18:01:00,
2013-08-25 13:16:00,89.6,74.0,30.15,SSE,159,1.0,9.0,61,0.00,,,0.00,weatherlink.com 1.10,2013-08-25 18:16:00,
2013-08-25 13:31:00,90.7,73.0,30.15,SE,146,7.0,11.0,57,0.00,,,0.00,weatherlink.com 1.10,2013-08-25 18:31:00,
2013-08-25 13:46:00,90.4,74.0,30.15,SE,146,4.0,10.0,58,0.00,,,0.00,weatherlink.com 1.10,2013-08-25 18:46:00,
2013-08-25 14:01:00,90.3,73.0,30.15,SE,134,9.0,10.0,57,0.00,,,0.00,weatherlink.com 1.10,2013-08-25 19:01:00,
2013-08-25 14:16:00,91.3,73.0,30.14,South,173,5.0,11.0,55,0.00,,,0.00,weatherlink.com 1.10,2013-08-25 19:16:00,
2013-08-25 14:31:00,91.0,74.0,30.14,SSE,154,6.0,9.0,58,0.00,,,0.00,weatherlink.com 1.10,2013-08-25 19:31:00,
2013-08-25 14:46:00,91.5,74.0,30.13,SSW,200,5.0,11.0,56,0.00,,,0.00,weatherlink.com 1.10,2013-08-25 19:46:00,
2013-08-25 15:01:00,90.9,74.0,30.13,SSW,194,2.0,10.0,57,0.00,,,0.00,weatherlink.com 1.10,2013-08-25 20:01:00,
2013-08-25 15:16:00,91.7,72.0,30.13,SSE,148,7.0,10.0,52,0.00,,,0.00,weatherlink.com 1.10,2013-08-25 20:16:00,
2013-08-25 15:31:00,92.8,73.0,30.12,South,184,9.0,14.0,53,0.00,,,0.00,weatherlink.com 1.10,2013-08-25 20:31:00,
2013-08-25 15:46:00,92.0,72.0,30.12,SSE,168,7.0,12.0,53,0.00,,,0.00,weatherlink.com 1.10,2013-08-25 20:46:00,
2013-08-25 16:01:00,92.6,73.0,30.11,SSE,147,12.0,13.0,53,0.00,,,0.00,weatherlink.com 1.10,2013-08-25 21:01:00,
2013-08-25 16:16:00,91.9,73.0,30.11,SSE,160,7.0,12.0,55,0.00,,,0.00,weatherlink.com 1.10,2013-08-25 21:16:00,
2013-08-25 16:31:00,92.2,73.0,30.11,SSE,167,4.0,11.0,54,0.00,,,0.00,weatherlink.com 1.10,2013-08-25 21:31:00,
2013-08-25 16:46:00,91.9,71.0,30.11,SSE,151,5.0,11.0,51,0.00,,,0.00,weatherlink.com 1.10,2013-08-25 21:46:00,
2013-08-25 17:01:00,92.4,73.0,30.11,SSE,153,5.0,11.0,54,0.00,,,0.00,weatherlink.com 1.10,2013-08-25 22:01:00,
2013-08-25 17:16:00,91.6,74.0,30.11,South,188,7.0,14.0,56,0.00,,,0.00,weatherlink.com 1.10,2013-08-25 22:16:00,
2013-08-25 17:31:00,92.1,73.0,30.11,South,186,2.0,11.0,53,0.00,,,0.00,weatherlink.com 1.10,2013-08-25 22:31:00,
2013-08-25 17:46:00,92.0,74.0,30.11,SSW,195,9.0,10.0,55,0.00,,,0.00,weatherlink.com 1.10,2013-08-25 22:46:00,
2013-08-25 18:01:00,91.5,73.0,30.11,SE,138,6.0,8.0,55,0.00,,,0.00,weatherlink.com 1.10,2013-08-25 23:01:00,
2013-08-25 18:16:00,91.3,73.0,30.11,South,178,4.0,8.0,56,0.00,,,0.00,weatherlink.com 1.10,2013-08-25 23:16:00,
2013-08-25 18:31:00,91.3,73.0,30.10,SSW,196,6.0,7.0,56,0.00,,,0.00,weatherlink.com 1.10,2013-08-25 23:31:00,
2013-08-25 18:46:00,90.8,72.0,30.10,SSE,157,5.0,9.0,55,0.00,,,0.00,weatherlink.com 1.10,2013-08-25 23:46:00,
2013-08-25 19:01:00,90.0,72.0,30.10,South,181,3.0,7.0,56,0.00,,,0.00,weatherlink.com 1.10,2013-08-26 00:01:00,
2013-08-25 19:16:00,89.5,72.0,30.10,South,169,3.0,7.0,57,0.00,,,0.00,weatherlink.com 1.10,2013-08-26 00:16:00,
2013-08-25 19:31:00,88.8,73.0,30.10,SSE,168,1.0,4.0,60,0.00,,,0.00,weatherlink.com 1.10,2013-08-26 00:31:00,
2013-08-25 19:46:00,87.9,73.0,30.10,SSE,168,1.0,4.0,62,0.00,,,0.00,weatherlink.com 1.10,2013-08-26 00:46:00,
2013-08-25 20:01:00,87.2,73.0,30.10,SSE,168,2.0,2.0,62,0.00,,,0.00,weatherlink.com 1.10,2013-08-26 01:01:00,
2013-08-25 20:16:00,86.0,74.0,30.11,SSE,168,0.0,0.0,68,0.00,,,0.00,weatherlink.com 1.10,2013-08-26 01:16:00,
2013-08-25 20:32:00,84.5,74.0,30.11,SSE,168,0.0,0.0,71,0.00,,,0.00,weatherlink.com 1.10,2013-08-26 01:32:00,
2013-08-25 20:47:00,83.2,73.0,30.12,SSE,168,0.0,0.0,72,0.00,,,0.00,weatherlink.com 1.10,2013-08-26 01:47:00,
2013-08-25 21:02:00,82.6,74.0,30.12,SSE,168,0.0,0.0,75,0.00,,,0.00,weatherlink.com 1.10,2013-08-26 02:02:00,
2013-08-25 21:17:00,82.5,73.0,30.13,SSE,168,0.0,0.0,74,0.00,,,0.00,weatherlink.com 1.10,2013-08-26 02:17:00,
2013-08-25 21:32:00,82.0,73.0,30.13,SSE,168,0.0,0.0,75,0.00,,,0.00,weatherlink.com 1.10,2013-08-26 02:32:00,
2013-08-25 21:47:00,81.3,74.0,30.14,SSE,168,0.0,0.0,78,0.00,,,0.00,weatherlink.com 1.10,2013-08-26 02:47:00,
2013-08-25 22:02:00,79.9,73.0,30.14,SSE,168,0.0,0.0,80,0.00,,,0.00,weatherlink.com 1.10,2013-08-26 03:02:00,
2013-08-25 22:17:00,79.4,74.0,30.14,SSE,168,0.0,0.0,83,0.00,,,0.00,weatherlink.com 1.10,2013-08-26 03:17:00,
2013-08-25 22:32:00,78.8,73.0,30.15,SSE,168,0.0,0.0,83,0.00,,,0.00,weatherlink.com 1.10,2013-08-26 03:32:00,
2013-08-25 22:47:00,78.0,73.0,30.15,SSE,168,0.0,0.0,85,0.00,,,0.00,weatherlink.com 1.10,2013-08-26 03:47:00,
2013-08-25 23:02:00,77.6,73.0,30.15,SSE,168,0.0,0.0,85,0.00,,,0.00,weatherlink.com 1.10,2013-08-26 04:02:00,
2013-08-25 23:17:00,77.7,73.0,30.15,SSE,168,0.0,0.0,84,0.00,,,0.00,weatherlink.com 1.10,2013-08-26 04:17:00,
2013-08-25 23:32:00,77.6,73.0,30.15,SSE,168,0.0,0.0,84,0.00,,,0.00,weatherlink.com 1.10,2013-08-26 04:32:00,
2013-08-25 23:47:00,77.6,73.0,30.16,SSE,168,0.0,0.0,84,0.00,,,0.00,weatherlink.com 1.10,2013-08-26 04:47:00,